DAL556 KJFK-KPSP

Flight info

Callsign DAL556
Flight time N/A
Altitude 34000
Route GAYEL Q818 WOZEE HOCKE MONEE DBQ CAPPR KD60A GLD HGO DAAYE HELPS UNLAP TBC PLNDL Q86 YORRK RDBUL1
Aircraft A319/M-SDE3FGHIRWY/LB1

Departure

Time 2026-05-08 12:26
Airport John F. Kennedy International Airport (KJFK)

Arrival

Time N/A
Airport Palm Springs International Airport (KPSP)
Time Latitude Longitude Altitude Speed Heading
2026-05-08 11:34 40.63509 -73.78005 27 ft 0 kts 285°
2026-05-08 11:34 40.63510 -73.78012 28 ft 0 kts 285°
2026-05-08 12:03 40.63510 -73.78011 5 ft 0 kts 285°
2026-05-08 12:15 40.63508 -73.78002 23 ft 4 kts 285°
2026-05-08 12:15 40.63505 -73.77975 23 ft 4 kts 232°
2026-05-08 12:15 40.63523 -73.77950 27 ft 4 kts 226°
2026-05-08 12:16 40.63531 -73.77938 26 ft 0 kts 226°
2026-05-08 12:20 40.63531 -73.77942 27 ft 0 kts 251°
2026-05-08 12:20 40.63535 -73.77946 27 ft 1 kts 305°
2026-05-08 12:20 40.63558 -73.77958 24 ft 5 kts 345°
2026-05-08 12:20 40.63602 -73.77964 23 ft 7 kts 353°
2026-05-08 12:21 40.63654 -73.77958 23 ft 8 kts 31°
2026-05-08 12:21 40.63648 -73.77894 25 ft 8 kts 153°
2026-05-08 12:21 40.63590 -73.77878 23 ft 10 kts 155°
2026-05-08 12:21 40.63542 -73.77816 23 ft 8 kts 163°
2026-05-08 12:22 40.63498 -73.77832 24 ft 5 kts 212°
2026-05-08 12:22 40.63466 -73.77859 24 ft 6 kts 211°
2026-05-08 12:22 40.63422 -73.77896 24 ft 9 kts 213°
2026-05-08 12:22 40.63360 -73.77914 24 ft 9 kts 148°
2026-05-08 12:23 40.63327 -73.77849 26 ft 9 kts 121°
2026-05-08 12:23 40.63293 -73.77774 27 ft 11 kts 121°
2026-05-08 12:23 40.63249 -73.77676 27 ft 14 kts 121°
2026-05-08 12:23 40.63196 -73.77560 29 ft 15 kts 121°
2026-05-08 12:24 40.63143 -73.77442 29 ft 15 kts 121°
2026-05-08 12:24 40.63088 -73.77321 27 ft 16 kts 121°
2026-05-08 12:24 40.63032 -73.77198 26 ft 16 kts 122°
2026-05-08 12:24 40.62968 -73.77085 24 ft 14 kts 157°
2026-05-08 12:25 40.62885 -73.77130 24 ft 11 kts 210°
2026-05-08 12:25 40.62820 -73.77180 25 ft 10 kts 215°
2026-05-08 12:25 40.62831 -73.77249 25 ft 9 kts 302°
2026-05-08 12:25 40.62915 -73.77433 28 ft 52 kts 301°
2026-05-08 12:26 40.63212 -73.78089 27 ft 113 kts 301°
2026-05-08 12:26 40.63708 -73.79180 27 ft 161 kts 301°
2026-05-08 12:26 40.64300 -73.80484 501 ft 165 kts 301°
2026-05-08 12:26 40.64558 -73.81447 889 ft 168 kts 278°
2026-05-08 12:27 40.64381 -73.82991 1394 ft 182 kts 249°
2026-05-08 12:27 40.63463 -73.84304 1660 ft 214 kts 212°
2026-05-08 12:27 40.61925 -73.84755 1943 ft 245 kts 178°
2026-05-08 12:27 40.60240 -73.84023 2392 ft 269 kts 147°
2026-05-08 12:28 40.58762 -73.82456 3204 ft 275 kts 138°
2026-05-08 12:28 40.57372 -73.80709 4127 ft 279 kts 128°
2026-05-08 12:28 40.56526 -73.78416 4944 ft 282 kts 99°
2026-05-08 12:28 40.56553 -73.75863 5727 ft 281 kts 70°
2026-05-08 12:29 40.57366 -73.73547 6521 ft 280 kts 54°
2026-05-08 12:29 40.58402 -73.71357 7310 ft 283 kts 51°
2026-05-08 12:29 40.59496 -73.69174 8110 ft 287 kts 50°
2026-05-08 12:29 40.60619 -73.66984 8922 ft 291 kts 49°
2026-05-08 12:30 40.61764 -73.64759 9745 ft 296 kts 49°
2026-05-08 12:30 40.62937 -73.62485 10285 ft 309 kts 50°
2026-05-08 12:30 40.64193 -73.60055 10513 ft 333 kts 50°
2026-05-08 12:30 40.65532 -73.57452 10821 ft 351 kts 51°
2026-05-08 12:31 40.66907 -73.54748 11449 ft 359 kts 51°
2026-05-08 12:31 40.68296 -73.51993 12125 ft 365 kts 51°
2026-05-08 12:31 40.69710 -73.49184 12793 ft 371 kts 51°
2026-05-08 12:31 40.71150 -73.46327 13451 ft 377 kts 51°
2026-05-08 12:32 40.72692 -73.43524 14044 ft 378 kts 42°
2026-05-08 12:32 40.74672 -73.41312 14610 ft 372 kts 25°
2026-05-08 12:32 40.76955 -73.39908 15192 ft 364 kts
2026-05-08 12:32 40.79442 -73.39341 15836 ft 355 kts 354°
2026-05-08 12:33 40.81835 -73.39626 16444 ft 347 kts 340°
2026-05-08 12:33 40.84082 -73.40668 17076 ft 339 kts 326°
2026-05-08 12:33 40.86034 -73.42365 17723 ft 333 kts 313°
2026-05-08 12:33 40.87597 -73.44589 18346 ft 330 kts 303°
2026-05-08 12:34 40.89012 -73.46999 18925 ft 332 kts 303°
2026-05-08 12:34 40.90433 -73.49412 19507 ft 334 kts 303°
2026-05-08 12:34 40.91864 -73.51834 20086 ft 335 kts 303°
2026-05-08 12:34 40.93302 -73.54268 20657 ft 337 kts 303°
2026-05-08 12:35 40.94754 -73.56722 21243 ft 339 kts 303°
2026-05-08 12:35 40.96205 -73.59181 21798 ft 341 kts 303°
2026-05-08 12:35 40.97666 -73.61665 22354 ft 343 kts 303°
2026-05-08 12:35 40.99134 -73.64161 22881 ft 345 kts 303°
2026-05-08 12:36 41.00611 -73.66672 23430 ft 346 kts 303°
2026-05-08 12:36 41.02096 -73.69197 23903 ft 348 kts 302°
2026-05-08 12:36 41.03584 -73.71732 24378 ft 349 kts 302°
2026-05-08 12:36 41.05073 -73.74271 24839 ft 349 kts 302°
2026-05-08 12:37 41.06560 -73.76816 25301 ft 350 kts 302°
2026-05-08 12:37 41.08048 -73.79368 25747 ft 350 kts 301°
2026-05-08 12:37 41.09542 -73.81928 26191 ft 351 kts 301°
2026-05-08 12:37 41.11036 -73.84498 26642 ft 352 kts 301°
2026-05-08 12:38 41.12532 -73.87070 27083 ft 353 kts 301°
2026-05-08 12:38 41.14035 -73.89649 27504 ft 354 kts 301°
2026-05-08 12:38 41.15544 -73.92236 27914 ft 355 kts 301°
2026-05-08 12:38 41.17056 -73.94831 28318 ft 356 kts 301°
2026-05-08 12:39 41.18575 -73.97436 28734 ft 357 kts 300°
2026-05-08 12:39 41.20093 -74.00045 29132 ft 358 kts 300°
2026-05-08 12:39 41.21611 -74.02665 29506 ft 359 kts 300°
2026-05-08 12:39 41.23139 -74.05303 29847 ft 360 kts 300°
2026-05-08 12:40 41.24672 -74.07950 30157 ft 362 kts 300°
2026-05-08 12:40 41.26212 -74.10606 30420 ft 364 kts 300°
2026-05-08 12:40 41.27754 -74.13274 30717 ft 364 kts 300°
2026-05-08 12:40 41.29297 -74.15947 31054 ft 364 kts 300°
2026-05-08 12:41 41.30835 -74.18620 31417 ft 364 kts 300°
2026-05-08 12:41 41.32377 -74.21305 31613 ft 368 kts 301°
2026-05-08 12:41 41.33940 -74.24027 31806 ft 371 kts 301°
2026-05-08 12:41 41.35516 -74.26763 32089 ft 372 kts 301°
2026-05-08 12:42 41.37094 -74.29500 32409 ft 373 kts 301°
2026-05-08 12:42 41.38673 -74.32240 32721 ft 373 kts 301°
2026-05-08 12:42 41.40245 -74.34984 33040 ft 372 kts 300°
2026-05-08 12:42 41.41613 -74.37883 33343 ft 368 kts 295°
2026-05-08 12:43 41.42893 -74.40841 33629 ft 369 kts 295°
2026-05-08 12:43 41.44173 -74.43799 33903 ft 370 kts 295°
2026-05-08 12:43 41.46731 -74.49712 33989 ft 365 kts 295°
2026-05-08 12:44 41.49260 -74.55571 33985 ft 364 kts 295°
2026-05-08 12:44 41.51788 -74.61429 33978 ft 364 kts 295°
2026-05-08 12:45 41.54316 -74.67279 33974 ft 364 kts 295°
2026-05-08 12:45 41.56838 -74.73140 33974 ft 364 kts 295°
2026-05-08 12:46 41.59349 -74.79002 33970 ft 364 kts 295°
2026-05-08 12:46 41.61867 -74.84876 33972 ft 364 kts 295°
2026-05-08 12:47 41.64386 -74.90754 33971 ft 365 kts 295°
2026-05-08 12:47 41.66885 -74.96611 33967 ft 366 kts 295°
2026-05-08 12:48 41.69409 -75.02530 33975 ft 366 kts 295°
2026-05-08 12:48 41.71919 -75.08454 33982 ft 366 kts 295°
2026-05-08 12:49 41.74426 -75.14383 33974 ft 366 kts 295°
2026-05-08 12:49 41.76933 -75.20309 33978 ft 366 kts 295°
2026-05-08 12:50 41.79446 -75.26250 33982 ft 366 kts 295°
2026-05-08 12:50 41.81949 -75.32193 33979 ft 366 kts 295°
2026-05-08 12:51 41.85697 -75.41115 33976 ft 366 kts 295°
2026-05-08 12:52 41.88190 -75.47064 33987 ft 365 kts 295°
2026-05-08 12:52 41.91909 -75.55961 33985 ft 363 kts 294°
2026-05-08 12:53 41.94377 -75.61889 33981 ft 363 kts 294°
2026-05-08 12:53 41.96838 -75.67806 33972 ft 362 kts 294°
2026-05-08 12:54 41.99288 -75.73703 33971 ft 361 kts 294°
2026-05-08 12:54 42.01740 -75.79601 33957 ft 361 kts 295°
2026-05-08 12:55 42.04184 -75.85506 33953 ft 361 kts 294°
2026-05-08 12:55 42.06617 -75.91398 33950 ft 362 kts 294°
2026-05-08 12:56 42.09060 -75.97337 33944 ft 363 kts 294°
2026-05-08 12:56 42.11502 -76.03286 33946 ft 363 kts 294°
2026-05-08 12:57 42.13943 -76.09233 33946 ft 363 kts 294°
2026-05-08 12:57 42.16269 -76.15250 33937 ft 360 kts 290°
2026-05-08 12:58 42.18272 -76.21461 33935 ft 361 kts 290°
2026-05-08 12:58 42.20268 -76.27684 33938 ft 362 kts 290°
2026-05-08 12:59 42.22272 -76.33941 33927 ft 364 kts 290°
2026-05-08 12:59 42.24276 -76.40223 33941 ft 365 kts 290°
2026-05-08 13:00 42.26284 -76.46519 33945 ft 366 kts 290°
2026-05-08 13:00 42.28293 -76.52839 33937 ft 366 kts 290°
2026-05-08 13:01 42.30307 -76.59177 33943 ft 368 kts 290°
2026-05-08 13:01 42.32321 -76.65549 33947 ft 369 kts 290°
2026-05-08 13:02 42.34337 -76.71943 33948 ft 369 kts 290°
2026-05-08 13:02 42.36345 -76.78286 33947 ft 370 kts 290°
2026-05-08 13:03 42.38356 -76.84691 33948 ft 370 kts 290°
2026-05-08 13:03 42.40356 -76.91098 33949 ft 370 kts 290°
2026-05-08 13:04 42.42035 -76.96469 33955 ft 370 kts 290°
2026-05-08 13:04 42.44037 -77.02887 33964 ft 370 kts 290°
2026-05-08 13:05 42.46040 -77.09320 33972 ft 371 kts 290°
2026-05-08 13:05 42.48043 -77.15755 33977 ft 371 kts 290°
2026-05-08 13:06 42.50037 -77.22202 33976 ft 371 kts 290°
2026-05-08 13:06 42.52033 -77.28657 34005 ft 371 kts 291°
2026-05-08 13:07 42.54031 -77.35127 33975 ft 373 kts 291°
2026-05-08 13:07 42.56025 -77.41621 33983 ft 373 kts 291°
2026-05-08 13:08 42.58021 -77.48135 33992 ft 374 kts 291°
2026-05-08 13:08 42.60018 -77.54648 33998 ft 374 kts 291°
2026-05-08 13:09 42.62008 -77.61178 34006 ft 374 kts 291°
2026-05-08 13:09 42.63991 -77.67705 34010 ft 374 kts 291°
2026-05-08 13:10 42.65969 -77.74243 34013 ft 374 kts 291°
2026-05-08 13:10 42.67868 -77.80824 34008 ft 373 kts 290°
2026-05-08 13:11 42.69692 -77.87429 33976 ft 373 kts 289°
2026-05-08 13:11 42.71507 -77.94045 33972 ft 373 kts 290°
2026-05-08 13:12 42.73339 -78.00649 33977 ft 373 kts 290°
2026-05-08 13:12 42.75173 -78.07236 33985 ft 372 kts 290°
2026-05-08 13:13 42.76995 -78.13828 33993 ft 372 kts 290°
2026-05-08 13:13 42.78812 -78.20418 33992 ft 371 kts 290°
2026-05-08 13:14 42.80625 -78.27003 33990 ft 371 kts 290°
2026-05-08 13:14 42.82432 -78.33588 33982 ft 371 kts 290°
2026-05-08 13:15 42.84232 -78.40175 34016 ft 371 kts 290°
2026-05-08 13:15 42.86023 -78.46727 33997 ft 371 kts 290°
2026-05-08 13:16 42.87837 -78.53372 33986 ft 372 kts 290°
2026-05-08 13:16 42.89618 -78.59953 33986 ft 372 kts 290°
2026-05-08 13:17 42.91409 -78.66579 33979 ft 372 kts 290°
2026-05-08 13:17 42.93168 -78.73216 33965 ft 372 kts 286°
2026-05-08 13:18 42.94015 -78.80187 33965 ft 373 kts 279°
2026-05-08 13:18 42.94709 -78.87202 33970 ft 373 kts 279°
2026-05-08 13:19 42.95405 -78.94214 33969 ft 373 kts 279°
2026-05-08 13:19 42.96098 -79.01276 33971 ft 373 kts 279°
2026-05-08 13:20 42.96781 -79.08291 33961 ft 373 kts 279°
2026-05-08 13:20 42.97457 -79.15263 33966 ft 372 kts 279°
2026-05-08 13:21 42.98137 -79.22315 33968 ft 372 kts 279°
2026-05-08 13:21 42.98807 -79.29277 33967 ft 372 kts 279°
2026-05-08 13:22 42.99475 -79.36280 33971 ft 372 kts 279°
2026-05-08 13:22 43.00141 -79.43282 33954 ft 372 kts 279°
2026-05-08 13:23 43.00794 -79.50292 33956 ft 371 kts 279°
2026-05-08 13:23 43.01443 -79.57283 33960 ft 371 kts 279°
2026-05-08 13:24 43.02092 -79.64281 33964 ft 371 kts 279°
2026-05-08 13:24 43.02736 -79.71264 33969 ft 370 kts 279°
2026-05-08 13:25 43.03381 -79.78256 33970 ft 370 kts 279°
2026-05-08 13:25 43.04014 -79.85241 33963 ft 370 kts 279°
2026-05-08 13:26 43.04640 -79.92216 33966 ft 370 kts 279°
2026-05-08 13:26 43.05261 -79.99189 33973 ft 369 kts 279°
2026-05-08 13:27 43.05880 -80.06163 33973 ft 369 kts 279°
2026-05-08 13:27 43.06494 -80.13130 33979 ft 369 kts 278°
2026-05-08 13:28 43.07101 -80.20105 33957 ft 369 kts 279°
2026-05-08 13:28 43.07712 -80.27066 33980 ft 368 kts 279°
2026-05-08 13:29 43.08312 -80.34022 33981 ft 368 kts 278°
2026-05-08 13:29 43.08908 -80.40970 33982 ft 367 kts 278°
2026-05-08 13:30 43.09503 -80.47911 33979 ft 367 kts 278°
2026-05-08 13:30 43.10088 -80.54844 33963 ft 367 kts 278°
2026-05-08 13:31 43.10668 -80.61777 33965 ft 366 kts 278°
2026-05-08 13:31 43.11247 -80.68692 33965 ft 366 kts 278°
2026-05-08 13:32 43.11817 -80.75616 33967 ft 366 kts 278°
2026-05-08 13:32 43.12379 -80.82541 33963 ft 366 kts 278°
2026-05-08 13:33 43.12939 -80.89449 33961 ft 365 kts 278°
2026-05-08 13:33 43.13498 -80.96358 33942 ft 365 kts 278°
2026-05-08 13:34 43.14058 -81.03254 33950 ft 364 kts 278°
2026-05-08 13:34 43.14604 -81.10144 33952 ft 364 kts 278°
2026-05-08 13:35 43.15139 -81.17032 33950 ft 364 kts 278°
2026-05-08 13:35 43.15682 -81.23921 33951 ft 364 kts 278°
2026-05-08 13:36 43.16227 -81.30804 33947 ft 363 kts 278°
2026-05-08 13:36 43.16762 -81.37693 33947 ft 363 kts 278°
2026-05-08 13:37 43.17287 -81.44573 33946 ft 363 kts 278°
2026-05-08 13:37 43.17804 -81.51455 33949 ft 363 kts 278°
2026-05-08 13:38 43.18320 -81.58332 33951 ft 363 kts 278°
2026-05-08 13:38 43.18835 -81.65213 33950 ft 363 kts 278°
2026-05-08 13:39 43.19348 -81.72091 33937 ft 363 kts 277°
2026-05-08 13:39 43.19854 -81.78979 33941 ft 363 kts 277°
2026-05-08 13:40 43.20349 -81.85868 33943 ft 363 kts 277°
2026-05-08 13:40 43.20846 -81.92755 33945 ft 363 kts 277°
2026-05-08 13:41 43.21344 -81.99656 33949 ft 363 kts 277°
2026-05-08 13:41 43.21750 -82.05392 33951 ft 363 kts 277°
2026-05-08 13:42 43.22232 -82.12289 33951 ft 363 kts 277°
2026-05-08 13:42 43.22713 -82.19187 33953 ft 363 kts 277°
2026-05-08 13:43 43.23196 -82.26084 33959 ft 363 kts 277°
2026-05-08 13:43 43.23670 -82.32985 33960 ft 363 kts 277°
2026-05-08 13:44 43.24141 -82.39884 33950 ft 363 kts 277°
2026-05-08 13:44 43.24605 -82.46781 33940 ft 363 kts 277°
2026-05-08 13:45 43.25058 -82.53688 33938 ft 363 kts 277°
2026-05-08 13:45 43.25517 -82.60589 33935 ft 364 kts 277°
2026-05-08 13:46 43.25974 -82.67500 33936 ft 364 kts 277°
2026-05-08 13:46 43.26196 -82.74432 33929 ft 365 kts 272°
2026-05-08 13:47 43.26152 -82.81392 33914 ft 365 kts 272°
2026-05-08 13:47 43.26114 -82.88351 33917 ft 365 kts 272°
2026-05-08 13:48 43.26072 -82.95312 33921 ft 365 kts 272°
2026-05-08 13:48 43.26028 -83.02272 33929 ft 365 kts 272°
2026-05-08 13:49 43.25970 -83.09239 33933 ft 365 kts 272°
2026-05-08 13:49 43.25907 -83.16209 33923 ft 365 kts 271°
2026-05-08 13:50 43.25837 -83.23172 33929 ft 365 kts 271°
2026-05-08 13:50 43.25773 -83.30111 33931 ft 365 kts 271°
2026-05-08 13:51 43.25708 -83.37123 33933 ft 366 kts 271°
2026-05-08 13:51 43.25630 -83.44098 33943 ft 366 kts 271°
2026-05-08 13:52 43.25545 -83.51072 33944 ft 366 kts 271°
2026-05-08 13:52 43.25470 -83.58043 33935 ft 366 kts 271°
2026-05-08 13:53 43.25389 -83.64990 33910 ft 366 kts 271°
2026-05-08 13:53 43.25289 -83.72021 33924 ft 367 kts 271°
2026-05-08 13:54 43.25189 -83.79022 33930 ft 367 kts 271°
2026-05-08 13:54 43.25093 -83.86030 33937 ft 367 kts 271°
2026-05-08 13:55 43.24991 -83.93034 33929 ft 368 kts 270°
2026-05-08 13:56 43.24818 -84.03570 33933 ft 368 kts 270°
2026-05-08 13:56 43.24706 -84.10552 33938 ft 369 kts 270°
2026-05-08 13:57 43.24589 -84.17586 33942 ft 369 kts 270°
2026-05-08 13:57 43.24466 -84.24620 33945 ft 369 kts 270°
2026-05-08 13:58 43.24331 -84.31704 33933 ft 369 kts 270°
2026-05-08 13:58 43.24200 -84.38737 33931 ft 369 kts 270°
2026-05-08 13:59 43.24058 -84.45731 33935 ft 369 kts 269°
2026-05-08 13:59 43.23372 -84.52777 33937 ft 371 kts 264°
2026-05-08 14:00 43.22629 -84.59777 33936 ft 371 kts 264°
2026-05-08 14:00 43.21883 -84.66764 33938 ft 371 kts 264°
2026-05-08 14:01 43.21128 -84.73752 33951 ft 370 kts 264°
2026-05-08 14:01 43.20370 -84.80733 33950 ft 370 kts 264°
2026-05-08 14:02 43.19616 -84.87656 33943 ft 370 kts 264°
2026-05-08 14:02 43.18854 -84.94621 33945 ft 369 kts 264°
2026-05-08 14:03 43.18096 -85.01581 33941 ft 369 kts 264°
2026-05-08 14:03 43.17326 -85.08540 33937 ft 369 kts 264°
2026-05-08 14:04 43.16546 -85.15491 33939 ft 369 kts 264°
2026-05-08 14:04 43.15759 -85.22449 33939 ft 369 kts 264°
2026-05-08 14:05 43.14975 -85.29397 33934 ft 369 kts 264°
2026-05-08 14:05 43.14191 -85.36332 33937 ft 369 kts 264°
2026-05-08 14:06 43.13398 -85.43269 33896 ft 369 kts 264°
2026-05-08 14:06 43.12605 -85.50218 33921 ft 369 kts 264°
2026-05-08 14:07 43.11805 -85.57165 33926 ft 369 kts 264°